Weather History for KHJH - November, 2013

Change the Weather History Date:

Sunday, November 24, 2013

  Actual Average Record
Temperature  
Mean Temperature 24 °F -  
Max Temperature 33 °F 43 °F 69 °F (2011)
Min Temperature 14 °F 22 °F 7 °F (1950)
Degree Days  
Heating Degree Days 42    
Moisture  
Dew Point 9 °F    
Average Humidity 54    
Maximum Humidity 77    
Minimum Humidity 33    
Precipitation  
Precipitation 0.00 in - - ()
Sea Level Pressure  
Sea Level Pressure 30.46 in    
Wind  
Wind Speed 8 mph (South)    
Max Wind Speed 17 mph    
Max Gust Speed 21 mph    
Visibility 10 miles    
Events Snow    
Averages and records for this station are not official NWS values.
T = Trace of Precipitation, MM = Missing Value Source: NWS Daily Summary

Daily Weather History Graph

Daily Weather History Graph

Search for Another Location

Airport or City:

Trip Planner

Search our weather history database for the weather conditions in past years. The results will help you decide how hot, cold, wet, or windy it might be!

Date:

Astronomy

Nov. 24, 2013 Rise Set
Actual Time 7:26 AM CST 5:07 PM CST
Civil Twilight 6:56 AM CST 5:37 PM CST
Nautical Twilight 6:23 AM CST 6:10 PM CST
Astronomical Twilight 5:50 AM CST 6:43 PM CST
Moon 11:35 PM CST (11/24) 12:14 PM CST (11/24)
Length of Visible Light 10h 40m
Length of Day
9h 41m
Waning Gibbous, 60% of the Moon is Illuminated
Nov 24
Waning Gibbous
Nov 25
Last Quarter
Dec 2
New
Dec 9
First Quarter
Dec 17
Full

Hourly Weather History & Observations

Time (CST) Temp. Windchill Dew Point Humidity Pressure Visibility Wind Dir Wind Speed Gust Speed Precip Events Conditions
12:15 AM 16.2 °F - 7.7 °F 69% 30.71 in 10.0 mi Calm Calm - N/A   Clear
12:35 AM 16.3 °F 7.8 °F 8.4 °F 71% 30.70 in 10.0 mi South 5.8 mph - N/A   Clear
12:55 AM 16.3 °F 6.7 °F 8.6 °F 72% 30.69 in 10.0 mi South 6.9 mph - N/A   Clear
1:15 AM 16.2 °F 7.6 °F 8.6 °F 72% 30.68 in 10.0 mi South 5.8 mph - N/A   Clear
1:35 AM 16.0 °F 7.4 °F 8.6 °F 73% 30.68 in 10.0 mi South 5.8 mph - N/A   Clear
1:55 AM 15.4 °F 6.8 °F 8.6 °F 74% 30.68 in 10.0 mi SSE 5.8 mph - N/A   Clear
2:15 AM 15.6 °F 10.0 °F 8.4 °F 73% 30.67 in 10.0 mi SSE 3.5 mph - N/A   Clear
2:35 AM 15.8 °F 7.2 °F 8.2 °F 72% 30.68 in 10.0 mi SE 5.8 mph - N/A   Clear
2:55 AM 14.7 °F 7.3 °F 7.7 °F 74% 30.68 in 10.0 mi SSE 4.6 mph - N/A   Clear
3:15 AM 15.3 °F - 8.2 °F 74% 30.67 in 10.0 mi Calm Calm - N/A   Clear
3:35 AM 14.9 °F 9.2 °F 8.4 °F 76% 30.67 in 10.0 mi SSW 3.5 mph - N/A   Clear
3:55 AM 15.4 °F 9.8 °F 8.4 °F 74% 30.66 in 10.0 mi SSW 3.5 mph - N/A   Clear
4:15 AM 15.8 °F 4.2 °F 8.2 °F 72% 30.64 in 10.0 mi South 9.2 mph - N/A   Clear
4:35 AM 15.8 °F 4.2 °F 8.4 °F 73% 30.63 in 10.0 mi South 9.2 mph - N/A   Clear
4:55 AM 15.8 °F 6.1 °F 8.6 °F 73% 30.63 in 10.0 mi SSW 6.9 mph - N/A   Clear
5:15 AM 15.8 °F 8.6 °F 8.6 °F 73% 30.65 in 10.0 mi SSW 4.6 mph - N/A   Clear
5:35 AM 15.6 °F 7.0 °F 8.8 °F 74% 30.63 in 10.0 mi SSW 5.8 mph - N/A   Clear
5:55 AM 15.8 °F 7.2 °F 9.1 °F 75% 30.63 in 10.0 mi South 5.8 mph - N/A   Clear
6:15 AM 15.8 °F 6.1 °F 9.1 °F 75% 30.62 in 10.0 mi South 6.9 mph - N/A   Clear
6:35 AM 15.4 °F 6.8 °F 9.1 °F 76% 30.62 in 10.0 mi SSW 5.8 mph - N/A   Clear
6:55 AM 15.6 °F 5.9 °F 9.5 °F 77% 30.61 in 10.0 mi South 6.9 mph - N/A   Clear
7:15 AM 15.6 °F 4.9 °F 9.3 °F 76% 30.59 in 10.0 mi South 8.1 mph - N/A   Clear
7:35 AM 15.8 °F 4.2 °F 9.5 °F 76% 30.59 in 10.0 mi South 9.2 mph - N/A   Clear
7:55 AM 16.3 °F 4.1 °F 10.0 °F 76% 30.59 in 10.0 mi South 10.4 mph - N/A   Clear
8:15 AM 17.2 °F 5.2 °F 10.2 °F 74% 30.58 in 10.0 mi South 10.4 mph - N/A   Clear
8:35 AM 18.1 °F 7.1 °F 10.2 °F 71% 30.58 in 10.0 mi South 9.2 mph - N/A   Clear
8:55 AM 19.8 °F 9.1 °F 10.6 °F 68% 30.58 in 10.0 mi South 9.2 mph - N/A   Clear
9:15 AM 21.6 °F 9.9 °F 9.5 °F 60% 30.58 in 10.0 mi South 11.5 mph - N/A   Clear
9:35 AM 23.0 °F 11.1 °F 7.9 °F 52% 30.57 in 10.0 mi South 12.7 mph - N/A   Clear
9:55 AM 24.8 °F 13.4 °F 7.2 °F 47% 30.56 in 10.0 mi South 12.7 mph - N/A   Clear
10:15 AM 26.2 °F 15.8 °F 7.5 °F 45% 30.56 in 10.0 mi South 11.5 mph - N/A   Clear
10:35 AM 26.2 °F 16.4 °F 7.0 °F 44% 30.54 in 10.0 mi South 10.4 mph - N/A   Clear
10:55 AM 27.3 °F 16.6 °F 6.1 °F 41% 30.53 in 10.0 mi South 12.7 mph - N/A   Clear
11:15 AM 26.4 °F 16.0 °F 6.1 °F 42% 30.52 in 10.0 mi South 11.5 mph - N/A   Clear
11:35 AM 27.3 °F 17.1 °F 6.3 °F 41% 30.50 in 10.0 mi South 11.5 mph - N/A   Clear
11:55 AM 28.2 °F 17.2 °F 5.7 °F 39% 30.49 in 10.0 mi South 13.8 mph - N/A   Clear
12:15 PM 29.1 °F 18.9 °F 7.2 °F 40% 30.47 in 10.0 mi South 12.7 mph 16.1 mph N/A   Clear
12:35 PM 32.2 °F 22.7 °F 7.5 °F 36% 30.46 in 10.0 mi South 12.7 mph - N/A   Clear
12:55 PM 33.4 °F 23.5 °F 7.0 °F 33% 30.44 in 10.0 mi South 15.0 mph 19.6 mph N/A   Clear
1:15 PM 33.1 °F 22.6 °F 7.5 °F 34% 30.42 in 10.0 mi SSW 16.1 mph - N/A   Clear
1:35 PM 33.3 °F 24.1 °F 8.1 °F 35% 30.41 in 10.0 mi South 12.7 mph - N/A   Scattered Clouds
1:55 PM 32.5 °F 23.7 °F 7.7 °F 35% 30.40 in 10.0 mi South 11.5 mph - N/A   Mostly Cloudy
2:15 PM 33.4 °F 23.9 °F 7.5 °F 34% 30.38 in 10.0 mi South 13.8 mph - N/A   Overcast
2:35 PM 33.3 °F 23.7 °F 7.5 °F 34% 30.37 in 10.0 mi South 13.8 mph 19.6 mph N/A   Overcast
2:55 PM 33.3 °F 22.8 °F 8.1 °F 35% 30.36 in 10.0 mi SSW 16.1 mph - N/A   Overcast
3:15 PM 33.8 °F 24.3 °F 9.1 °F 36% 30.35 in 10.0 mi South 13.8 mph 19.6 mph N/A   Overcast
3:35 PM 33.8 °F 23.2 °F 9.0 °F 36% 30.34 in 10.0 mi South 17.3 mph - N/A   Overcast
3:55 PM 33.4 °F 23.1 °F 9.5 °F 37% 30.33 in 10.0 mi South 16.1 mph 20.7 mph N/A   Mostly Cloudy
4:15 PM 32.2 °F 21.8 °F 8.6 °F 37% 30.33 in 10.0 mi South 15.0 mph 20.7 mph N/A   Overcast
4:35 PM 31.5 °F 21.4 °F 8.2 °F 38% 30.32 in 10.0 mi South 13.8 mph - N/A   Overcast
4:55 PM 30.4 °F 20.5 °F 8.6 °F 40% 30.31 in 10.0 mi South 12.7 mph 18.4 mph N/A   Mostly Cloudy
5:15 PM 29.8 °F 18.9 °F 9.0 °F 42% 30.30 in 10.0 mi South 15.0 mph 20.7 mph N/A   Mostly Cloudy
5:35 PM 29.8 °F 19.8 °F 9.3 °F 42% 30.30 in 10.0 mi South 12.7 mph - N/A   Mostly Cloudy
5:55 PM 26.8 °F 18.5 °F 19.6 °F 74% 30.29 in 4.0 mi SSW 8.1 mph - N/A Snow Light Snow
6:15 PM 29.1 °F 18.4 °F 13.5 °F 52% 30.28 in 10.0 mi South 13.8 mph 17.3 mph N/A   Overcast
6:35 PM 29.3 °F 19.1 °F 10.6 °F 46% 30.27 in 10.0 mi South 12.7 mph 17.3 mph N/A   Overcast
6:55 PM 29.3 °F 19.1 °F 9.1 °F 43% 30.27 in 10.0 mi South 12.7 mph - N/A   Overcast
7:15 PM 29.3 °F 18.2 °F 8.1 °F 41% 30.26 in 10.0 mi South 15.0 mph - N/A   Overcast
7:35 PM 28.8 °F 19.0 °F 7.7 °F 41% 30.25 in 10.0 mi South 11.5 mph 19.6 mph N/A   Overcast
7:55 PM 27.5 °F 17.4 °F 7.5 °F 43% 30.24 in 10.0 mi South 11.5 mph - N/A   Scattered Clouds
8:15 PM 27.1 °F 18.2 °F 7.5 °F 44% 30.24 in 10.0 mi South 9.2 mph - N/A   Clear
8:35 PM 27.1 °F 17.5 °F 7.2 °F 43% 30.24 in 10.0 mi South 10.4 mph - N/A   Clear
8:55 PM 26.6 °F 19.1 °F 7.5 °F 45% 30.22 in 10.0 mi South 6.9 mph - N/A   Clear
9:15 PM 26.2 °F 20.7 °F 7.7 °F 46% 30.23 in 10.0 mi South 4.6 mph - N/A   Clear
9:35 PM 25.7 °F 20.1 °F 8.6 °F 48% 30.23 in 10.0 mi South 4.6 mph - N/A   Clear
9:55 PM 25.3 °F - 8.6 °F 49% 30.23 in 10.0 mi Calm Calm - N/A   Clear
10:15 PM 24.3 °F 19.9 °F 9.5 °F 53% 30.22 in 10.0 mi South 3.5 mph - N/A   Scattered Clouds
10:35 PM 26.2 °F 20.7 °F 10.8 °F 52% 30.22 in 10.0 mi South 4.6 mph - N/A   Overcast
10:55 PM 28.2 °F 18.9 °F 9.7 °F 46% 30.22 in 10.0 mi SSW 10.4 mph - N/A   Overcast
11:15 PM 28.8 °F 19.5 °F 9.5 °F 45% 30.21 in 10.0 mi SSW 10.4 mph 19.6 mph N/A   Overcast
11:35 PM 28.8 °F 17.5 °F 10.0 °F 46% 30.20 in 10.0 mi SSW 15.0 mph 18.4 mph N/A   Overcast
11:55 PM 28.8 °F 20.2 °F 10.4 °F 46% 30.20 in 10.0 mi SSW 9.2 mph - N/A   Overcast